NANOSATC-BR1

Last updated on Sat Aug 15 2026 00:03:44 GMT+0000 (Coordinated Universal Time)

1 40024U 14033Q 26226.58397074 .00010126 00000+0 31866-3 0 9998 2 40024 98.0687 264.2191 0002800 16.8929 343.2404 15.33168403662929
UTC large
Height (km)
Speed (km/s)
/
Latitude / Longitude
Inclination (degrees)
Orbital Period (minutes)
Azimuth
Elevation
Range (km)
Doppler Factor

Next 0 passes for location: London (51.5072 / 0.1276)

No passes found over London.
NANOSATC-BR1